Location: Houhaj�rvi
(61.2833°N, 23.0000°E)
Time: 17:19:00
(UTC+00:00)

Cosmos 1655 Rocket - Pass Details

Date: 27 February 2020
Orbit: 970 x 1006 km, 82.9° (Epoch: 28 March)

Event Time Altitude Azimuth Distance (km) Brightness Sun altitude
Rises 18:30:36 0° 344° (NNW) 3,752 7.6 -20.3°
Reaches altitude 10° 18:33:10 10° 347° (NNW) 2,798 6.8 -20.5°
Maximum altitude 18:39:36 69° 71° (ENE) 1,077 4.0 -21.3°
Enters shadow 18:42:27 35° 145° (SE) 1,573 4.6 -21.6°
